CW5586 Weather Reports


Display with metric or nautical units.
time (UTC)temp
F
wind
direction
speed
MPH
gust
MPH
rain 1hr
in
rain 24hr
in
rain mn
in
humidity
%
barometer
mb
20260905093603 60 221 14.0 18.0 0.00 0.38 0.14 77 1001.8
20260905091104 60 134 2.0 15.0 0.00 0.38 0.14 79 1001.5
20260905090603 60 250 8.0 18.0 0.00 0.38 0.14 78 1001.4
20260905090115 61 260 7.0 22.0 0.00 0.38 0.14 75 1001.5
20260905084603 61 273 10.0 22.0 0.00 0.38 0.14 76 1001.3
20260905084103 61 263 13.0 13.0 0.00 0.38 0.14 77 1001.4
20260905083103 60 319 9.0 21.0 0.00 0.38 0.14 78 1001.2
20260905080115 59 333 2.0 20.0 0.01 0.38 0.14 80 1001.1
20260905074603 59 283 8.0 14.0 0.01 0.38 0.14 83 1000.9
20260905074104 59 304 3.0 17.0 0.01 0.38 0.14 84 1000.8
20260905073104 58 219 5.0 10.0 0.01 0.38 0.14 87 1000.7
20260905071603 57 292 2.0 13.0 0.01 0.38 0.14 88 1000.6
20260905071104 57 250 7.0 13.0 0.01 0.38 0.14 87 1000.7
20260905070603 57 304 2.0 13.0 0.00 0.37 0.13 87 1000.6
20260905064103 57 244 7.0 9.0 0.00 0.37 0.13 88 1000.4
20260905063603 57 250 9.0 9.0 0.00 0.37 0.13 88 1000.2
20260905063104 57 246 2.0 13.0 0.00 0.37 0.13 89 1000.2
20260905061603 56 276 2.0 8.0 0.00 0.37 0.13 91 1000.0
20260905060603 56 292 5.0 12.0 0.02 0.37 0.13 91 999.9
20260905054603 55 227 2.0 6.0 0.02 0.37 0.13 93 999.7
20260905054103 55 205 3.0 6.0 0.02 0.37 0.13 93 999.6
20260905050603 54 248 9.0 6.0 0.01 0.35 0.12 93 999.3
20260905041603 54 218 2.0 3.0 0.00 0.35 0.11 93 999.2
20260905041103 54 211 1.0 3.0 0.00 0.35 0.11 94 999.2
20260905034603 54 0 0.0 2.0 0.00 0.35 0.11 94 999.0
20260905034103 54 0 0.0 2.0 0.00 0.35 0.11 94 999.1
20260905033104 54 286 1.0 2.0 0.00 0.35 0.11 94 998.9
20260905031603 54 277 0.0 2.0 0.02 0.35 0.11 94 998.8
20260905030604 54 277 1.0 2.0 0.09 0.35 0.11 94 998.8
20260905024604 54 325 1.0 3.0 0.09 0.35 0.11 94 998.6
20260905023103 54 231 1.0 12.0 0.09 0.35 0.11 94 998.4
20260905021603 54 0 2.0 6.0 0.09 0.33 0.09 94 998.3
20260905021104 54 297 2.0 5.0 0.05 0.29 0.06 94 998.4
20260905020115 54 0 0.0 2.0 0.01 0.25 0.02 93 998.3
20260905013103 54 0 0.0 5.0 0.01 0.25 0.02 92 998.0
20260905011604 54 291 2.0 3.0 0.00 0.24 0.01 93 998.0
20260905011104 54 288 3.0 3.0 0.00 0.24 0.01 93 998.0
20260905010603 54 300 1.0 3.0 0.00 0.24 0.01 93 998.0
20260905010115 54 273 1.0 3.0 0.00 0.24 0.01 93 998.1
20260905004603 54 268 3.0 3.0 0.00 0.24 0.01 94 998.0
20260905004103 54 234 1.0 3.0 0.00 0.24 0.01 94 998.0
20260905001603 55 194 3.0 5.0 0.01 0.25 0.01 94 997.8
20260905000604 55 205 2.0 3.0 0.01 0.25 0.01 94 997.8
20260904234604 55 205 3.0 3.0 0.01 0.25 0.01 93 997.6
20260904231604 55 0 0.0 2.0 0.00 0.25 0.00 93 997.5
20260904224603 55 256 2.0 3.0 0.22 0.29 0.00 93 997.5
20260904223604 55 311 1.0 6.0 0.22 0.31 0.00 93 997.4
20260904221106 56 320 3.0 9.0 0.22 0.40 0.00 93 997.4
20260904220115 55 267 1.0 10.0 0.01 0.42 0.21 92 997.3
20260904214604 55 254 1.0 2.0 0.01 0.33 0.20 92 997.3
20260904213603 55 310 1.0 2.0 0.02 0.33 0.20 92 997.2
20260904213104 55 0 0.0 2.0 0.02 0.33 0.20 91 997.2
20260904211603 55 0 0.0 2.0 0.02 0.33 0.20 91 997.1
20260904210116 56 218 2.0 3.0 0.02 0.33 0.20 91 997.1
20260904204604 56 218 1.0 2.0 0.01 0.32 0.20 90 997.1
20260904203104 56 0 0.0 2.0 0.00 0.31 0.19 90 997.2
20260904201603 56 187 1.0 2.0 0.00 0.31 0.19 90 997.2
20260904201104 56 187 2.0 2.0 0.00 0.31 0.19 90 997.3
20260904194604 56 187 1.0 2.0 0.00 0.31 0.19 88 997.2
20260904193603 56 187 2.0 2.0 0.00 0.31 0.19 87 997.2
20260904193104 56 187 1.0 2.0 0.00 0.31 0.19 87 997.2
20260904191104 57 280 1.0 2.0 0.00 0.31 0.19 86 997.3
20260904184104 57 237 2.0 3.0 0.00 0.31 0.19 86 997.3
20260904181603 57 249 1.0 2.0 0.00 0.31 0.19 85 997.4
20260904181104 57 0 0.0 1.0 0.00 0.31 0.19 84 997.4
20260904180603 58 0 0.0 2.0 0.00 0.31 0.19 84 997.4
20260904174603 58 171 2.0 2.0 0.00 0.32 0.19 82 997.3
20260904173604 58 254 0.0 2.0 0.00 0.32 0.19 81 997.3
20260904171604 59 218 6.0 8.0 0.00 0.32 0.19 78 997.3
20260904171103 59 267 2.0 8.0 0.00 0.32 0.19 77 997.3
20260904164103 60 238 1.0 7.0 0.00 0.32 0.19 76 997.2
20260904163603 60 352 2.0 7.0 0.00 0.32 0.19 76 997.3
20260904161604 61 306 2.0 5.0 0.00 0.32 0.19 74 997.2
20260904160604 61 230 3.0 3.0 0.00 0.32 0.19 75 997.3
20260904160116 61 295 3.0 8.0 0.00 0.32 0.19 74 997.3
20260904154603 61 241 2.0 8.0 0.00 0.33 0.19 73 997.3
20260904151104 61 288 5.0 12.0 0.00 0.37 0.19 75 997.5
20260904150604 61 0 0.0 12.0 0.00 0.37 0.19 75 997.5
20260904150115 61 171 2.0 9.0 0.00 0.37 0.19 74 997.5
20260904144104 62 188 6.0 9.0 0.00 0.37 0.19 71 997.4
20260904143603 62 184 3.0 13.0 0.00 0.37 0.19 72 997.6
20260904141603 63 188 2.0 7.0 0.00 0.37 0.19 74 997.8
20260904141103 62 237 3.0 8.0 0.00 0.37 0.19 76 997.9
20260904140604 62 242 6.0 10.0 0.00 0.37 0.19 77 997.9
20260904140116 61 238 5.0 10.0 0.00 0.37 0.19 77 997.9
20260904134604 62 189 5.0 9.0 0.00 0.37 0.19 72 997.9
20260904134104 63 259 2.0 12.0 0.00 0.37 0.19 73 997.9
20260904133604 62 284 6.0 12.0 0.00 0.37 0.19 73 998.0
20260904131103 61 180 1.0 7.0 0.00 0.37 0.19 75 998.1
20260904130116 61 232 2.0 13.0 0.00 0.37 0.19 77 998.1
20260904124604 61 232 5.0 8.0 0.00 0.37 0.19 76 998.2
20260904124104 61 230 2.0 12.0 0.00 0.37 0.19 76 998.3
20260904123605 61 261 7.0 12.0 0.00 0.37 0.19 75 998.3
20260904123103 61 252 12.0 12.0 0.00 0.37 0.19 74 998.4
20260904121604 61 250 2.0 9.0 0.00 0.37 0.19 74 998.4
20260904121104 61 224 2.0 12.0 0.00 0.37 0.19 74 998.5
20260904120604 61 254 1.0 16.0 0.00 0.37 0.19 76 998.6
20260904114604 61 184 3.0 12.0 0.00 0.37 0.19 78 998.8
20260904114104 61 232 6.0 12.0 0.00 0.37 0.19 77 998.9
20260904113104 61 242 6.0 12.0 0.00 0.37 0.19 77 998.8
20260904110603 60 223 6.0 10.0 0.00 0.37 0.19 76 998.8
20260904110115 60 228 5.0 15.0 0.00 0.37 0.19 76 998.8
20260904103104 60 223 3.0 13.0 0.00 0.37 0.19 78 999.3
20260904100604 60 250 2.0 18.0 0.00 0.37 0.19 78 999.5
20260904094604 60 250 5.0 15.0 0.00 0.37 0.19 79 999.7